Weather History for Geneva, Switzerland

Change the Weather History Date:

Friday, January 18, 2013

  Actual Average Record
Temperature  
Mean Temperature 25 °F -  
Max Temperature 29 °F 40 °F 55 °F (2008)
Min Temperature 21 °F 29 °F 19 °F (2012)
Degree Days  
Heating Degree Days 40    
Moisture  
Dew Point 17 °F    
Average Humidity 67    
Maximum Humidity 80    
Minimum Humidity 48    
Precipitation  
Precipitation 0.02 in 0.10 in - ()
Sea Level Pressure  
Sea Level Pressure 29.71 in    
Wind  
Wind Speed 5 mph ()    
Max Wind Speed 12 mph    
Max Gust Speed -    
Visibility 6.4 miles    
Events Snow    
Averages and records for this station are not official NWS values.
T = Trace of Precipitation, MM = Missing Value Source: Averaged Metar Reports

Daily Weather History Graph

Daily Weather History Graph

Search for Another Location

Airport:

Trip Planner

Search our weather history database for the weather conditions in past years. The results will help you decide how hot, cold, wet, or windy it might be!

Date:

Astronomy

Jan. 18, 2013 Rise Set
Actual Time 8:12 AM CET 5:20 PM CET
Civil Twilight 7:38 AM CET 5:53 PM CET
Nautical Twilight 7:01 AM CET 6:30 PM CET
Astronomical Twilight 6:26 AM CET 7:06 PM CET
Moon 11:14 AM CET (1/18) 12:20 AM CET (1/18)
Length of Visible Light 10h 14m
Length of Day
9h 07m
Waxing Crescent, 45% of the Moon is Illuminated
Jan 18
Waxing Crescent
Jan 19
First Quarter
Jan 27
Full
Feb 3
Last Quarter
Feb 10
New

Hourly Weather History & Observations

Time (CET) Temp. Windchill Dew Point Humidity Pressure Visibility Wind Dir Wind Speed Gust Speed Precip Events Conditions
12:00 AM 24 °F - 14 °F 52% 29.95 in - North 8.1 mph - -  
12:20 AM 23.0 °F 15.8 °F 14.0 °F 68% 29.83 in 6.2 mi North 5.8 mph - N/A   Scattered Clouds
12:50 AM 23.0 °F 18.4 °F 14.0 °F 68% 29.83 in 6.2 mi NNW 3.5 mph - N/A   Scattered Clouds
1:00 AM 23 °F - 13 °F 52% 29.95 in 12 mi NNW 3.5 mph - -   Partly Cloudy
1:20 AM 23.0 °F 14.7 °F 15.8 °F 74% 29.83 in 6.2 mi North 6.9 mph - N/A   Scattered Clouds
1:50 AM 23.0 °F 15.8 °F 15.8 °F 74% 29.83 in 6.2 mi North 5.8 mph - N/A   Mostly Cloudy
2:00 AM 24 °F - 15 °F 59% 29.94 in - North 5.8 mph - -  
2:50 AM 24.8 °F 19.1 °F 17.6 °F 74% 29.83 in 6.2 mi North 4.6 mph - N/A   Mostly Cloudy
3:00 AM 24 °F - 16 °F 59% 29.93 in - NNW 4.6 mph - -  
3:20 AM 24.8 °F 19.1 °F 17.6 °F 74% 29.83 in 6.2 mi North 4.6 mph - N/A   Mostly Cloudy
3:50 AM 24.8 °F 17.9 °F 17.6 °F 74% 29.80 in 6.2 mi North 5.8 mph - N/A   Mostly Cloudy
4:20 AM 24.8 °F 17.9 °F 17.6 °F 74% 29.80 in 6.2 mi North 5.8 mph - N/A   Mostly Cloudy
4:50 AM 24.8 °F 16.9 °F 17.6 °F 74% 29.77 in 6.2 mi North 6.9 mph - N/A   Mostly Cloudy
5:00 AM 24 °F - 16 °F 62% 29.87 in - North 5.8 mph - -  
5:20 AM 23.0 °F 15.8 °F 17.6 °F 80% 29.77 in 6.2 mi North 5.8 mph - N/A   Mostly Cloudy
5:50 AM 24.8 °F 17.9 °F 17.6 °F 74% 29.77 in 6.2 mi North 5.8 mph - N/A   Mostly Cloudy
6:00 AM 24 °F - 16 °F 62% 29.86 in - North 5.8 mph - -  
6:20 AM 23.0 °F 15.8 °F 15.8 °F 74% 29.77 in 6.2 mi North 5.8 mph - N/A   Scattered Clouds
6:50 AM 23.0 °F 17.0 °F 15.8 °F 74% 29.77 in 6.2 mi North 4.6 mph - N/A   Partly Cloudy
7:00 AM 22 °F - 14 °F 60% 29.87 in 11 mi North 3.5 mph - -   Partly Cloudy
7:20 AM 21.2 °F 14.9 °F 15.8 °F 80% 29.77 in 6.2 mi North 4.6 mph - N/A   Partly Cloudy
7:50 AM 21.2 °F 14.9 °F 15.8 °F 80% 29.77 in 6.2 mi North 4.6 mph - N/A   Scattered Clouds
8:00 AM 22 °F - 15 °F 62% 29.88 in - North 5.8 mph - -  
8:20 AM 23.0 °F 15.8 °F 17.6 °F 80% 29.77 in 6.2 mi North 5.8 mph - N/A   Scattered Clouds
8:50 AM 23.0 °F 17.0 °F 15.8 °F 74% 29.77 in 6.2 mi North 4.6 mph - N/A   Scattered Clouds
9:00 AM 22 °F - 15 °F 65% 29.88 in - North 4.6 mph - -  
9:20 AM 23.0 °F 17.0 °F 15.8 °F 74% 29.77 in 6.2 mi North 4.6 mph - N/A   Scattered Clouds
9:50 AM 23.0 °F 17.0 °F 15.8 °F 74% 29.77 in 6.2 mi North 4.6 mph - N/A   Mostly Cloudy
10:20 AM 24.8 °F 19.1 °F 17.6 °F 74% 29.77 in 6.2 mi North 4.6 mph - N/A   Mostly Cloudy
10:50 AM 24.8 °F 19.1 °F 17.6 °F 74% 29.74 in 6.2 mi North 4.6 mph - N/A   Mostly Cloudy
11:00 AM 26 °F - 16 °F 53% 29.84 in - NNE 4.6 mph - -  
11:20 AM 26.6 °F 20.0 °F 17.6 °F 69% 29.74 in 6.2 mi North 5.8 mph - N/A   Mostly Cloudy
11:50 AM 28.4 °F 18.5 °F 17.6 °F 64% 29.71 in 6.2 mi NE 11.5 mph - N/A   Scattered Clouds
12:00 PM 27 °F - 17 °F 54% 29.79 in - NE 11.5 mph - -  
12:20 PM 26.6 °F 16.8 °F 17.6 °F 69% 29.68 in 6.2 mi NE 10.4 mph - N/A   Scattered Clouds
12:50 PM 28.4 °F 18.5 °F 17.6 °F 64% 29.68 in 6.2 mi NE 11.5 mph - N/A   Scattered Clouds
1:00 PM 29 °F - 17 °F 48% 29.76 in 9 mi NE 11.5 mph - -   Haze
1:20 PM 28.4 °F 19.7 °F 17.6 °F 64% 29.68 in 6.2 mi ENE 9.2 mph - N/A   Scattered Clouds
1:50 PM 28.4 °F 19.7 °F 17.6 °F 64% 29.68 in 6.2 mi NE 9.2 mph - N/A   Mostly Cloudy
2:00 PM 28 °F - 17 °F 49% 29.75 in - NE 9.2 mph - -  
2:20 PM 28.4 °F 20.4 °F 17.6 °F 64% 29.65 in 6.2 mi NE 8.1 mph - N/A   Mostly Cloudy
2:50 PM 28.4 °F 22.2 °F 19.4 °F 69% 29.65 in - NE 5.8 mph - N/A   Clear
3:20 PM 28.4 °F 21.2 °F 19.4 °F 69% 29.62 in 6.2 mi NE 6.9 mph - N/A   Mostly Cloudy
3:50 PM 28.4 °F 24.6 °F 19.4 °F 69% 29.62 in 6.2 mi Variable 3.5 mph - N/A   Overcast
4:20 PM 28.4 °F 24.6 °F 19.4 °F 69% 29.62 in - North 3.5 mph - N/A   Clear
4:50 PM 26.6 °F - 19.4 °F 74% 29.62 in - Variable 1.2 mph - N/A   Clear
5:00 PM 27 °F - 17 °F 56% 29.69 in - North 3.5 mph - -  
5:20 PM 26.6 °F - 19.4 °F 74% 29.59 in - Variable 2.3 mph - N/A   Clear
5:50 PM 26.6 °F 22.6 °F 17.6 °F 69% 29.59 in - Variable 3.5 mph - N/A   Clear
6:00 PM 27 °F - 17 °F 53% 29.68 in - North 3.5 mph - -  
6:20 PM 26.6 °F - 17.6 °F 69% 29.59 in - Variable 2.3 mph - N/A   Clear
6:50 PM 26.6 °F - 17.6 °F 69% 29.56 in 6.2 mi Variable 2.3 mph - N/A   Overcast
7:00 PM 27 °F - 16 °F 51% 29.65 in 8 mi North 3.5 mph - -   Haze
7:20 PM 26.6 °F - 17.6 °F 69% 29.56 in 6.2 mi Variable 2.3 mph - N/A   Mostly Cloudy
7:50 PM 26.6 °F - 17.6 °F 69% 29.56 in 6.2 mi Variable 2.3 mph - N/A   Mostly Cloudy
8:00 PM 28 °F - 16 °F 48% 29.63 in - North 3.5 mph - -  
8:20 PM 26.6 °F - 17.6 °F 69% 29.53 in 6.2 mi Variable 2.3 mph - N/A   Mostly Cloudy
8:50 PM 26.6 °F 22.6 °F 17.6 °F 69% 29.53 in 6.2 mi Variable 3.5 mph - N/A   Mostly Cloudy
9:00 PM 27 °F - 17 °F 54% 29.62 in - North 3.5 mph - -  
9:20 PM 26.6 °F - 17.6 °F 69% 29.53 in 6.2 mi Variable 2.3 mph - N/A   Overcast
9:50 PM 26.6 °F - 17.6 °F 69% 29.50 in 6.2 mi Variable 2.3 mph - N/A   Overcast
10:20 PM 26.6 °F - 17.6 °F 69% 29.50 in 6.2 mi Variable 1.2 mph - N/A   Overcast
10:50 PM 26.6 °F - 19.4 °F 74% 29.50 in 6.2 mi Variable 2.3 mph - N/A   Overcast
11:00 PM 27 °F - 17 °F 56% 29.60 in - West 2.3 mph - -  
11:20 PM 26.6 °F - 19.4 °F 74% 29.50 in 5.0 mi Calm Calm - N/A Snow Light Snow
11:50 PM 26.6 °F - 21.2 °F 80% 29.50 in 1.6 mi Variable 2.3 mph - N/A Snow Snow